Voltar ao catálogo

OPS 5118

NAVSTAR 6

AtivoNavegaçãoHEO
NORAD 11783·PAYLOAD·🇺🇸 United States

Lançado Apr 26, 1980 de Vandenberg Space Force Base

Loading…

Próximas Passagens (próximas 24 horas)

TLE

AtualizadoSource: Space-Track

Época: Sep 13, 2026, 16:28 UTC

1 11783U 80032A   26256.68634765  .00000019  00000-0  00000-0 0  9999
2 11783  61.8103 245.4116 0554405  51.3159 124.0461  2.03456063343558

Acompanhe OPS 5118 em tempo real com AllMySat

Download on the App Store